WAT5676 KPAE-KIAD

Flight info

Callsign WAT5676
Flight time N/A
Altitude 35000
Route SEA NORMY J90 MWH HLN SWTHN Q156 HSTIN JIBOR OBK FWA J178 APE J30 KARYL MGW GIBBZ5
Aircraft B77W/H-SDE1E2E3FGHIJ2J3J4J5M1RWXY/LB1D1

Departure

Time 2026-04-30 01:34
Airport Seattle Paine Field International Airport (KPAE)

Arrival

Time N/A
Airport Washington Dulles International Airport (KIAD)
Time Latitude Longitude Altitude Speed Heading
2026-04-30 00:56 47.92113 -122.27731 572 ft 0 kts
2026-04-30 01:20 47.92112 -122.27731 567 ft 0 kts
2026-04-30 01:20 47.92099 -122.27731 575 ft 3 kts
2026-04-30 01:20 47.92080 -122.27732 576 ft 2 kts
2026-04-30 01:21 47.92064 -122.27732 574 ft 3 kts 342°
2026-04-30 01:21 47.92050 -122.27719 571 ft 3 kts 294°
2026-04-30 01:21 47.92046 -122.27691 573 ft 3 kts 272°
2026-04-30 01:21 47.92045 -122.27666 572 ft 1 kts 270°
2026-04-30 01:22 47.92045 -122.27659 572 ft 0 kts 270°
2026-04-30 01:25 47.92045 -122.27663 568 ft 1 kts 270°
2026-04-30 01:26 47.92046 -122.27739 574 ft 15 kts 270°
2026-04-30 01:26 47.92045 -122.27934 576 ft 11 kts 268°
2026-04-30 01:26 47.92073 -122.28033 580 ft 11 kts 325°
2026-04-30 01:26 47.92143 -122.28068 581 ft 11 kts 324°
2026-04-30 01:27 47.92165 -122.28173 588 ft 11 kts 278°
2026-04-30 01:27 47.92167 -122.28198 587 ft 0 kts 276°
2026-04-30 01:28 47.92167 -122.28203 587 ft 3 kts 276°
2026-04-30 01:28 47.92166 -122.28322 588 ft 20 kts 259°
2026-04-30 01:28 47.92089 -122.28421 588 ft 26 kts 179°
2026-04-30 01:28 47.91850 -122.28374 587 ft 28 kts 176°
2026-04-30 01:29 47.91644 -122.28355 587 ft 30 kts 179°
2026-04-30 01:29 47.91430 -122.28350 589 ft 31 kts 179°
2026-04-30 01:29 47.91220 -122.28346 597 ft 30 kts 179°
2026-04-30 01:29 47.91011 -122.28343 600 ft 30 kts 179°
2026-04-30 01:30 47.90802 -122.28337 598 ft 30 kts 179°
2026-04-30 01:30 47.90661 -122.28334 598 ft 30 kts 179°
2026-04-30 01:30 47.90453 -122.28326 596 ft 30 kts 179°
2026-04-30 01:30 47.90245 -122.28324 601 ft 30 kts 179°
2026-04-30 01:31 47.90036 -122.28319 615 ft 30 kts 179°
2026-04-30 01:31 47.89828 -122.28312 623 ft 30 kts 178°
2026-04-30 01:31 47.89692 -122.28370 619 ft 0 kts 240°
2026-04-30 01:32 47.89690 -122.28377 620 ft 5 kts 243°
2026-04-30 01:32 47.89699 -122.28511 624 ft 19 kts 318°
2026-04-30 01:32 47.89733 -122.28529 614 ft 0 kts 352°
2026-04-30 01:33 47.89890 -122.28549 617 ft 70 kts 357°
2026-04-30 01:33 47.90726 -122.28564 600 ft 169 kts 358°
2026-04-30 01:33 47.92164 -122.28637 775 ft 230 kts 358°
2026-04-30 01:34 47.93661 -122.28664 1164 ft 206 kts 360°
2026-04-30 01:34 47.95123 -122.28682 1508 ft 216 kts 358°
2026-04-30 01:34 47.96660 -122.28698 1928 ft 223 kts 358°
2026-04-30 01:34 47.98211 -122.29012 2419 ft 229 kts 345°
2026-04-30 01:35 47.99707 -122.29892 3090 ft 227 kts 334°
2026-04-30 01:35 48.00893 -122.31379 3774 ft 227 kts 301°
2026-04-30 01:35 48.01259 -122.33691 4284 ft 237 kts 268°
2026-04-30 01:35 48.00880 -122.36120 5363 ft 243 kts 246°
2026-04-30 01:36 47.99977 -122.38204 6967 ft 241 kts 221°
2026-04-30 01:36 47.98562 -122.39550 8131 ft 246 kts 194°
2026-04-30 01:36 47.96881 -122.39811 8948 ft 244 kts 173°
2026-04-30 01:36 47.95178 -122.39545 9627 ft 249 kts 172°
2026-04-30 01:37 47.93435 -122.39241 10273 ft 255 kts 172°
2026-04-30 01:37 47.91656 -122.38926 10904 ft 259 kts 172°
2026-04-30 01:37 47.89848 -122.38604 11574 ft 264 kts 171°
2026-04-30 01:37 47.87998 -122.38278 12134 ft 272 kts 172°
2026-04-30 01:38 47.86053 -122.37941 12438 ft 293 kts 172°